Voltar ao catálogo

STARLINK-30927

AtivoComunicaçõesVLEO
NORAD 58382·PAYLOAD·🇺🇸 United States

Lançado Nov 20, 2023 de Vandenberg Space Force Base

Loading…

Próximas Passagens (próximas 24 horas)

TLE

AtualizadoSource: CelesTrak SupGP

Época: Sep 14, 2026, 20:58 UTC

1 58382C 23178J   26257.87409722  .00020427  00000+0  60292-3 0  2571
2 58382  53.1582 198.3663 0001267  98.1370 214.7009 15.34411312    11

Acompanhe STARLINK-30927 em tempo real com AllMySat

Download on the App Store